Zurück zum Katalog

COSMOS 2251 DEB

AktivLEO
NORAD 37533·DEBRIS·🇷🇺 Russia

Gestartet Jun 16, 1993 von Plesetsk Cosmodrome

Loading…

Nächste Überflüge (nächste 24 Stunden)

TLE

VeraltetSource: Space-Track

Epoche: Sep 2, 2026, 21:49 UTC

1 37533U 93036BNN 26245.90946049  .00001002  00000-0  48457-3 0  9996
2 37533  74.0653  85.5376 0157922  78.5051 283.3775 14.13422093666523

Verfolge COSMOS 2251 DEB in Echtzeit mit AllMySat

Download on the App Store